Location: Asheville, NC
(35.6000°N, 82.5500°W)
Time: 20:14:58
(UTC-04:00)

Vanguard 1 - Pass Details

Date: 09 March 2018
Orbit: 650 x 3833 km, 34.3° (Epoch: 24 June)

Event Time Altitude Azimuth Distance (km) Brightness Sun altitude
Rises 17:32:21 0° 285° (WNW) 6,449 15.4 11.3°
Reaches altitude 10° 17:38:20 10° 274° (W) 4,813 15.5 10.1°
Maximum altitude 17:47:06 23° 229° (SW) 2,897 13.6 8.3°
Drops below altitude 10° 17:52:59 10° 179° (S) 3,082 12.8 7.2°
Sets 17:55:50 0° 164° (SSE) 3,713 13.0 6.6°
